This demonstration page uses our WeatherBlox Daily Observations layout. Learn more.

Left ArrowRight Arrow

Hourly Observations for November 12, 2018

Temp ( °F °C ) Dew Point ( °F °C ) Humidity (%) Winds ( mph kmh ) Pressure ( in mb ) Visibility ( mi km ) Precip ( " mm )
12:52 am 00:52 Cloudy 27 -2.8 17 -8.3 66 66 NNW 14 22 30.47 1032 10 16 0.00 0.00
1:52 am 01:52 Cloudy 26 -3.3 17 -8.3 69 69 N 12 19 30.45 1031 10 16 0.00 0.00
2:52 am 02:52 Cloudy 27 -2.8 17 -8.3 66 66 NNW 13 20 30.47 1032 10 16 0.00 0.00
3:13 am 03:13 Cloudy 27 -2.8 17 -8.3 66 66 N 14 22 30.50 1033 10 16 0.00 0.00
3:52 am 03:52 Cloudy 26 -3.3 15 -9.4 63 63 N 22 35 30.48 1032 10 16 0.00 0.00
4:52 am 04:52 Cloudy 25 -3.9 14 -10 63 63 N 21 33 30.50 1033 10 16 0.00 0.00
5:52 am 05:52 Cloudy 25 -3.9 15 -9.4 66 66 N 14 22 30.50 1033 10 16 0.00 0.00
6:52 am 06:52 Cloudy 25 -3.9 14 -10 63 63 NNE 18 30 30.53 1034 10 16 0.00 0.00
7:10 am 07:10 Cloudy with Light Snow 25 -3.9 13 -10.6 60 60 N 15 24 30.56 1035 9 14 0.00 0.03
7:52 am 07:52 Cloudy with Light Snow 25 -3.9 14 -10 63 63 N 14 22 30.59 1036 9 14 0.00 0.03
8:52 am 08:52 Cloudy with Light Snow 24 -4.4 15 -9.4 68 68 N 16 26 30.60 1036 6 10 0.00 0.03
9:52 am 09:52 Mostly Cloudy 25 -3.9 10 -12.2 53 53 N 22 35 30.63 1037 10 16 0.00 0.03
10:52 am 10:52 Mostly Cloudy 26 -3.3 10 -12.2 51 51 N 18 30 30.60 1036 10 16 0.00 0.00
11:52 am 11:52 Cloudy 26 -3.3 10 -12.2 51 51 N 22 35 30.58 1036 10 16 0.00 0.00
12:52 pm 12:52 Windy with Snow Likely 25 -3.9 10 -12.2 53 53 N 20 31 30.57 1035 9 14 0.00 0.03
1:52 pm 13:52 Windy with Snow Likely 26 -3.3 10 -12.2 51 51 NW 20 31 30.56 1035 9 14 0.00 0.03
2:52 pm 14:52 Windy with Snow Likely 25 -3.9 11 -11.7 55 55 N 20 31 30.56 1035 9 14 0.00 0.03
3:52 pm 15:52 Mostly Cloudy 25 -3.9 9 -12.8 50 50 N 17 28 30.57 1035 10 16 0.00 0.03
4:52 pm 16:52 Mostly Cloudy 24 -4.4 10 -12.2 55 55 N 14 22 30.58 1036 10 16 0.00 0.00
5:52 pm 17:52 Mostly Clear 21 -6.1 10 -12.2 62 62 NNW 13 20 30.59 1036 10 16 0.00 0.00
6:52 pm 18:52 Clear 19 -7.2 10 -12.2 68 68 NW 9 15 30.60 1036 10 16 0.00 0.00
7:52 pm 19:52 Clear 18 -7.8 10 -12.2 71 71 NW 9 15 30.60 1036 10 16 0.00 0.00
8:52 pm 20:52 Clear 16 -8.9 9 -12.8 74 74 NW 7 11 30.60 1036 10 16 0.00 0.00
9:52 pm 21:52 Clear 15 -9.4 9 -12.8 77 77 NNW 8 13 30.61 1037 10 16 0.00 0.00
10:52 pm 22:52 Clear 14 -10 9 -12.8 80 80 N 5 7 30.62 1037 10 16 0.00 0.00
11:52 pm 23:52 Clear 14 -10 9 -12.8 80 80 Calm 30.61 1037 10 16 0.00 0.00

Powered by AerisWeather